Location: Helsinki
(60.1699°N, 24.9384°E)
Time: 23:28:36
(UTC+02:00)

Altair - Pass Details

Date: 02 November 2020
Orbit: 1502 x 1682 km, 47.2° (Epoch: 25 November)

Event Time Altitude Azimuth Distance (km) Brightness Sun altitude
Rises 07:56:05 0° 261° (W) 4,682 9.6 0.2°
Reaches altitude 10° 07:59:23 10° 253° (WSW) 3,720 9.2 0.5°
Maximum altitude 08:07:38 36° 191° (SSW) 2,309 8.8 1.4°
Drops below altitude 10° 08:16:08 10° 130° (SE) 3,841 12.1 2.2°
Sets 08:19:37 0° 123° (ESE) 4,852 13.3 2.6°
